Zurück zum Katalog

PAKSAT 1

ANATOLIA 1

AktivKommunikationGEO
NORAD 23779·PAYLOAD·🇵🇰 Pakistan

Gestartet Feb 1, 1996 von Cape Canaveral Space Force Station

Loading…

TLE

AktuellSource: Space-Track

Epoche: Sep 14, 2026, 11:54 UTC

1 23779U 96006A   26257.49596293 -.00000023  00000-0  00000-0 0  9994
2 23779  11.0420  45.0006 0008594 177.3140 206.2154  0.99588464111749

Verfolge PAKSAT 1 in Echtzeit mit AllMySat

Download on the App Store